Regional Weather Roundup
Issued by NWS

Home | Current Version | Previous Version | Text Only | Print | Product List | Glossary On
Versions: 1 2 3 4 5 6 7 8 9 10 11 12 13 14 15 16 17 18 19 20 21 22 23 24 25 26 27 28 29 30 31 32 33 34 35 36 37 38 39 40 41 42 43 44 45 46 47 48 49 50
000
ASUS43 KLOT 031408
RWRIL

ILLINOIS REGIONAL WEATHER ROUNDUP
NATIONAL WEATHER SERVICE CHICAGO/ROMEOVILLE IL
900 AM CDT TUE MAY 03 2016

NOTE: "FAIR" INDICATES FEW OR NO CLOUDS BELOW 12,000 FEET WITH NO
SIGNIFICANT WEATHER AND/OR OBSTRUCTIONS TO VISIBILITY.

* THESE STATIONS ARE NOT UNDER NWS QUALITY CONTROL. THEY ALSO MAY NOT
  REPORT WEATHER SUCH AS PRECIPITATION OR FOG.

ILZ001-002-007-009-015-016-024-031500-
NORTHWEST ILLINOIS

CITY           SKY/WX    TMP DP  RH WIND       PRES   REMARKS
MOLINE         SUNNY     56  45  66 W6        30.01S
STERLING*      SUNNY     55  45  67 NW8       30.00S
SAVANNA*       SUNNY     54  44  68 NW8       29.99F
$$

ILZ003-004-008-010-011-017-018-031500-
NORTH CENTRAL ILLINOIS

CITY           SKY/WX    TMP DP  RH WIND       PRES   REMARKS
ROCKFORD       MOSUNNY   57  43  59 NW9       29.99F
FREEPORT*      SUNNY     54  45  71 W7        30.00S
ROCHELLE*      MOSUNNY   53  43  70 W6        29.99S
DE KALB*       MOSUNNY   53  43  69 W10       29.98F
$$

ILZ005-006-012>014-019>023-031500-
NORTHEAST ILLINOIS

CITY           SKY/WX    TMP DP  RH WIND       PRES   REMARKS
CHICAGO-OHARE  MOSUNNY   56  36  47 W12       29.96F
CHICAGO-MIDWAY MOSUNNY   57  35  43 W5        29.97F
AURORA         PTSUNNY   52  44  74 W8        29.98F
LANSING*       SUNNY     55  36  48 W6        29.98S
JOLIET*        SUNNY     56  41  56 W6        29.98F
WAUKEGAN       MOSUNNY   56  39  53 VRB7      29.94F
DUPAGE AIRPORT MOSUNNY   53  38  56 W6        29.96F
KANKAKEE*      SUNNY     55  40  58 W8        29.99S
WHEELING       SUNNY     57  36  45 W9        29.97F
MORRIS*        SUNNY     56  42  61 W8        29.97F
ROMEOVILLE*    SUNNY     55  38  53 NW7       29.98F
NORTHERLY ISL    N/A     56  32  40 W7          N/A
NORTHERLY ISL    N/A     56  32  40 W7          N/A
$$

LMZ740>746-031500-
SOUTHERN LAKE MICHIGAN

STATION/POSITION SKY/WX   TEMP    WIND        PRES    VSBY  WAVE
                          AIR SEA DIR/SP/G                  HT/PER
                          (F)     (DEG/KT/KT) (MB)    (MI)  (FT/S)
SOUTHERN BUOY              42 41  170/  4/  6 1014.5          0
HARRISON CRIB              52     260/  5/  5   N/A
BURNHAM HARBOR             56     250/  5/  9   N/A
CALUMET HARBOR             53     270/  4/  7 1014.6F
BURNS HARBOR               48     290/  3/  4 1015.9R
MICHIGAN CITY              47     230/  1/  1   N/A
ST. JOSEPH                 46 48                N/A           1
$$

ILZ025>027-034>036-040-047-049-050-058-095>099-031500-
WEST-CENTRAL ILLINOIS

CITY           SKY/WX    TMP DP  RH WIND       PRES   REMARKS
QUINCY         CLOUDY    54  46  74 NW5       30.05R
GALESBURG*     MOSUNNY   53  46  77 NW8       30.02S
MACOMB*        MOSUNNY   56  46  68 NW9       30.05S
JACKSONVILLE*  SUNNY     56  47  70 NW7       30.04S
PITTSFIELD*    SUNNY     57  47  70 N3        30.06R
$$

ILZ028>032-037-038-041>044-048-051>054-059>061-031500-
CENTRAL ILLINOIS

CITY           SKY/WX    TMP DP  RH WIND       PRES   REMARKS
PONTIAC        SUNNY     56  46  68 W9        30.00S
BLOOMINGTON    SUNNY     55  41  59 NW9       30.01S
DECATUR        SUNNY     58  43  57 N7        30.01S
PEORIA         SUNNY     56  42  59 N7        30.02S
LACON*         SUNNY     55  44  67 NW7       30.00S
LINCOLN*       SUNNY     56  46  71 NW6       30.02S
SPRINGFIELD    SUNNY     57  46  66 NW6       30.03S
TAYLORVILLE    SUNNY     55  43  65 NW6       30.02S
$$

ILZ033-039-045-046-055>057-062-063-031500-
EAST-CENTRAL ILLINOIS

CITY           SKY/WX    TMP DP  RH WIND       PRES   REMARKS
CHAMPAIGN      SUNNY     55  42  61 NW13      29.99S
RANTOUL*       SUNNY     57  45  64 N9        29.99S
MATTOON        MOSUNNY   54  44  69 N12       30.00R
PARIS*         CLOUDY    51  43  75 N6        30.00R
$$

ILZ079-100>102-031500-
SOUTHWEST ILLINOIS

CITY           SKY/WX    TMP DP  RH WIND       PRES   REMARKS
ALTON          SUNNY     55  48  76 N9        30.04R
CAHOKIA*       MOSUNNY   58  47  66 W7        30.04R
SPARTA*        PTSUNNY   56  50  81 NW7       30.04S
$$

ILZ064>066-069>071-074>076-080>082-084>086-088>090-092>094-031500-
SOUTH-CENTRAL ILLINOIS

CITY           SKY/WX    TMP DP  RH WIND       PRES   REMARKS
CARBONDALE     CLOUDY    56  49  77 NW8       30.02S
CAIRO*         CLOUDY    56  50  78 NW7       30.03S
EFFINGHAM*     CLOUDY    55  47  73 NW6       30.03R
MARION         PTSUNNY   55  52  88 N12       30.03R
MT. VERNON     SUNNY     57  45  62 N6        30.02S
CENTRALIA*     SUNNY     58  50  75 N7        30.01S
SALEM*         SUNNY     58  46  65 N8        30.02S
METROPOLIS*    CLOUDY    56  52  85 N5        30.03R
$$

ILZ067-068-072-073-078-083-087-091-031500-
SOUTHEAST ILLINOIS

CITY           SKY/WX    TMP DP  RH WIND       PRES   REMARKS
LAWRENCEVILLE  CLOUDY    54  48  80 NW10      29.99R
FLORA*         SUNNY     57  46  66 NW8       30.01S
FAIRFIELD*     SUNNY     56  47  71 N7        30.00S
HARRISBURG*    MOSUNNY   57  50  78 NW6       30.01S
ROBINSON*      MOSUNNY   52  48  86 N10       30.00S
CARMI*         SUNNY     56  47  71 NW12      30.00S
$$

ABBREVIATIONS USED IN REMARKS
   TC - TEMPERATURE IN CELSIUS
  WCI - WIND CHILL INDEX
   HX - HEAT INDEX
  VSB - VISIBILITY
$$




USA.gov is the U.S. government's official web portal to all federal, state and local government web resources and services.